Location: Kerb�bon
(47.7970°N, 3.3487°W)
Time: 11:31:48
(UTC+00:00)

Cosmos 1340 Rocket - Pass Details

Date: 12 May 2021
Orbit: 527 x 559 km, 81.2° (Epoch: 18 June)

Event Time Altitude Azimuth Distance (km) Brightness Sun altitude
Rises 22:18:35 0° 348° (NNW) 2,759 7.8 -19.3°
Reaches altitude 10° 22:20:46 10° 349° (N) 1,858 6.6 -19.5°
Maximum altitude 22:24:52 87° 75° (ENE) 565 2.7 -19.8°
Enters shadow 22:25:43 56° 165° (SSE) 669 2.8 -19.8°
